Terug naar catalogus

STARLINK-34713

ActiefCommunicatieVLEO
NORAD 64906·PAYLOAD·🇺🇸 United States

Gelanceerd Jul 26, 2025 vanaf Cape Canaveral Space Force Station

Loading…

Volgende Passages (komende 24 uur)

TLE

VersSource: CelesTrak SupGP

Epoch: Sep 15, 2026, 03:08 UTC

1 64906C 25157C   26258.13104167 -.00036377  00000+0 -10748-2 0  2588
2 64906  53.1575 182.9544 0001321  86.1894  47.7936 15.34406417    11

Volg STARLINK-34713 in realtime met AllMySat

Download on the App Store